Location: Casteau
(50.5142°N, 4.0161°E)
Time: 19:58:07
(UTC+00:00)

Tiros 1 - Pass Details

Date: 07 August 2021
Orbit: 630 x 663 km, 48.4° (Epoch: 28 September)

Event Time Altitude Azimuth Distance (km) Brightness Sun altitude
Rises 17:13:36 0° 252° (WSW) 2,989 11.9 18.1°
Reaches altitude 10° 17:15:58 10° 250° (WSW) 2,075 11.2 17.8°
Maximum altitude 17:20:42 63° 169° (S) 736 7.6 17.0°
Drops below altitude 10° 17:25:24 10° 90° (E) 2,062 9.2 16.3°
Sets 17:27:45 0° 87° (E) 2,968 9.9 15.9°
